Weather History for Camarillo, CA

Change the Weather History Date:

Wednesday, April 17, 2013

  Actual Average Record
Temperature  
Mean Temperature 59 °F 58 °F  
Max Temperature 73 °F 69 °F 85 °F (1999)
Min Temperature 45 °F 48 °F 40 °F (1976)
Degree Days  
Heating Degree Days 6 7  
Month to date heating degree days 65 124  
Since 1 July heating degree days 1407 1737  
Cooling Degree Days 0 0  
Month to date cooling degree days 0 0  
Year to date cooling degree days 24 13  
Growing Degree Days 9 (Base 50)    
Moisture  
Dew Point 38 °F    
Average Humidity 46    
Maximum Humidity 76    
Minimum Humidity 16    
Precipitation  
Precipitation 0.00 in 0.03 in 1.48 in (2000)
Month to date precipitation 0.00 0.36  
Year to date precipitation 2.07 10.19  
Since 1 July precipitation 4.78 14.43  
Sea Level Pressure  
Sea Level Pressure 30.11 in    
Wind  
Wind Speed 7 mph (West)    
Max Wind Speed 24 mph    
Max Gust Speed 30 mph    
Visibility 10 miles    
Events      
T = Trace of Precipitation, MM = Missing Value Source: NWS Daily Summary

Daily Weather History Graph

Daily Weather History Graph

Search for Another Location

Airport:

Trip Planner

Search our weather history database for the weather conditions in past years. The results will help you decide how hot, cold, wet, or windy it might be!

Date:

Astronomy

Apr. 17, 2013 Rise Set
Actual Time 6:22 AM PDT 7:29 PM PDT
Civil Twilight 5:56 AM PDT 7:55 PM PDT
Nautical Twilight 5:25 AM PDT 8:26 PM PDT
Astronomical Twilight 4:53 AM PDT 8:58 PM PDT
Moon 11:45 AM PDT (4/17) 1:05 AM PDT (4/17)
Length of Visible Light 13h 59m
Length of Day
13h 07m
Waxing Crescent, 43% of the Moon is Illuminated
Apr 17
Waxing Crescent
Apr 18
First Quarter
Apr 25
Full
May 2
Last Quarter
May 9
New

Hourly Weather History & Observations

Time (PDT) Temp. Dew Point Humidity Pressure Visibility Wind Dir Wind Speed Gust Speed Precip Events Conditions
12:55 AM 53.1 °F 42.1 °F 66% 30.06 in 10.0 mi Calm Calm - N/A   Clear
1:55 AM 50.0 °F 41.0 °F 71% 30.06 in 10.0 mi Calm Calm - N/A   Clear
2:55 AM 50.0 °F 39.9 °F 68% 30.07 in 10.0 mi ENE 3.5 mph - N/A   Clear
3:55 AM 48.0 °F 39.0 °F 71% 30.08 in 10.0 mi Calm Calm - N/A   Clear
4:55 AM 46.9 °F 37.9 °F 71% 30.09 in 10.0 mi ENE 6.9 mph - N/A   Clear
5:55 AM 48.0 °F 39.0 °F 71% 30.11 in 10.0 mi NNE 3.5 mph - N/A   Clear
7:55 AM 54.0 °F 39.0 °F 57% 30.14 in 10.0 mi NE 5.8 mph - N/A   Clear
8:55 AM 63.0 °F 35.1 °F 35% 30.16 in 10.0 mi Calm Calm - N/A   Clear
9:55 AM 64.0 °F 36.0 °F 35% 30.15 in 10.0 mi SW 8.1 mph - N/A   Clear
10:55 AM 69.1 °F 35.1 °F 29% 30.14 in - WSW 5.8 mph - N/A   Unknown
11:55 AM 69.1 °F 32.0 °F 25% 30.13 in 10.0 mi WSW 10.4 mph - N/A   Clear
12:55 PM 71.1 °F 23.0 °F 16% 30.12 in 10.0 mi West 17.3 mph - N/A   Clear
1:55 PM 72.0 °F 26.1 °F 18% 30.11 in 10.0 mi West 21.9 mph - N/A   Clear
2:55 PM 71.1 °F 30.0 °F 22% 30.10 in 10.0 mi West 23.0 mph - N/A   Clear
3:55 PM 71.1 °F 36.0 °F 28% 30.09 in 10.0 mi West 19.6 mph - N/A   Clear
4:55 PM 69.1 °F 39.9 °F 35% 30.09 in 10.0 mi West 16.1 mph - N/A   Clear
5:55 PM 66.9 °F 42.1 °F 40% 30.09 in 10.0 mi WSW 6.9 mph - N/A   Clear
6:55 PM 64.0 °F 43.0 °F 46% 30.10 in 10.0 mi SSW 4.6 mph - N/A   Clear
7:55 PM 61.0 °F 44.1 °F 54% 30.11 in 10.0 mi South 3.5 mph - N/A   Clear
8:55 PM 59.0 °F 43.0 °F 55% 30.12 in 10.0 mi Calm Calm - N/A   Clear
9:55 PM 57.9 °F 43.0 °F 58% 30.14 in 10.0 mi ENE 3.5 mph - N/A   Clear
11:55 PM 52.0 °F 39.0 °F 61% 30.16 in 10.0 mi Calm Calm - N/A   Clear